STARLINK-30272, 57860

Orbit data source: Space-Track

STARLINK-30272, 57860 is a payload satellite owned by SpaceX/Seattle (US) in LEO that was launched on Tue, 12 Sep 2023 UTC via an FALCON 9 launch vehicle from the Air Force Western Test Range (AFWTR). Payload-class satellites include a variety of spacecraft equipped with specific instruments for various scientific and technological missions. These include communications satellites like Starlink; space stations such as the ISS; scientific satellites like the Hubble; Earth observation satellites from companies like Planet Labs, Umbra, and HawkEye 360; GPS; miniature CubeSats for education and research; and military/defense satellites.

Loading next visibility...
Identifier
57860, 2023-141W
Orbit
LEO
Country
Flag of USUS
Related business
Manufacturer
SpaceX/Seattle
Mission
Operational Commercial Communications
Bus & Motor
STARLINK V2M, Unknown motor
Mass
730 kg wet, ~700 kg dry
Launch date (UTC)
2023-09-12 (3 years ago)
Launch vehicle
FALCON 9
Launch site
Air Force Western Test Range (AFWTR)
Object type
Payload
Rocket body
Debris
Shape & HBR
Box + 2 Pan, 17.7 m
Radar Cross Section
33.884 m², Large (>1 m²)

Expand to show TLE details & history
Last TLE update: 2 days ago

TLE from 2 days ago
0 STARLINK-30272
1 57860U 23141W   26171.28604966  .00001083  00000-0  46643-4 0  9994
2 57860  53.1604 167.0290 0001366 100.0890 260.0265 15.31706006156042
Epoch: 2026-06-20T06:51Z
TLE epoch observation values (Epoch: 2026-06-20T06:51:54.690Z)
Latitude
-0.00007°
Longitude
155.54821°
Altitude
471.785 km
Speed
7.631 km/s
True Right ascension
11h 08m 06s
True Declination
0° 00' 00"
Sunlit
Object was in daylight at epoch
Visualization orbit readout
Latitude
Unknown
Longitude
Unknown
Altitude
Unknown
Speed
Unknown
Apparent Right ascension
Unknown
Apparent Declination
Unknown
Sunlit
N/A
Visualization observer readout
Local Sidereal Time
21:33:51
Azimuth
Unknown
Elevation
Unknown
Doppler factor
Unknown
Orbital elements
Apogee altitude
471.914 km
Perigee altitude
470.043 km
Semi-major axis
6,849.116 km
Eccentricity
0.00014
Inclination
53.1604°
RAAN
167.029°
Arg. of periapsis
100.089°
True anomaly
260.01108°
Mean anomaly
260.0265°
Eccentric anomaly
260.01879°
Mean motion
3.82905 °/min
Orbital period
94.02 mins
BSTAR
0.000046643
Loading maneuver chart data...
Computing Atmospheric mass density...
Loading historical data...
Loading historical data...
Loading historical data...
Loading historical data...
Loading historical data...
Loading historical data...
Loading historical data...

Documentation

Showing up to 5 results
|